Weather in Vuhledar

Ukraine / Donetsk Region     47°46′44″N   37°14′53″E
temp.,
°C
wind,
m/s
gust,
m/s
humid.,
%
clouds,
%
prec.,
mm/h
press.,
hPa
HPBL,
m
7 may, fri
fri700:00+11sw3468100 0.0 101246
03:00+9wnw3472100 0.0 101358
06:00+10nw358892 0.0 1014160
09:00+13nnw456921 0.0 1016748
12:00+17nnw444417 0.0 10161392
15:00+18nw2236100 0.0 10161825
18:00+18s12375 0.0 10151626
21:00+12s487696 0.0 1016128
8 may, sat
sat800:00+11s4881100 0.0 1015197
03:00+11s4117799 0.0 1014277
06:00+11s51281100 0.0 1014427
09:00+15s71066100 0.0 1013678
12:00+18ssw7960100 0.0 1012998
15:00+20sw6852100 0.0 10111503
18:00+13nnw71188100 0.3 1012476
21:00+11n61087100 0.4 1014635
9 may, sun
sun900:00+9n81188100 0.1 1015714
03:00+7n81187100 0.9 1016871
06:00+6n61388100 2.3 10171090
09:00+8n81276100 3.3 10181261
12:00+10n91359100 0.1 10191485
15:00+12n91245100 0.1 10202301
18:00+12n6115264 0.0 10211866
21:00+8nw4117169 0.1 1024251
10 may, mon
mon1000:00+6nnw412783 0.0 1026283
03:00+4nnw412820 0.0 1026295
06:00+5nnw5147821 0.0 1027494
09:00+10n9135347 0.0 10261485
12:00+13n91243100 0.0 10251804
15:00+14n91144100 0.0 10242000
18:00+13n81252100 0.0 10231278
21:00+12n81455100 0.0 10231171
11 may, tue
tue1100:00+11n81558100 0.0 1021907
03:00+10nne81568100 0.1 1020747
06:00+9n81681100 0.3 1020623
09:00+10nne81588100 0.6 1020782
12:00+12nne81179100 0.0 10191086
15:00+12ne7127574 0.3 10181517
18:00+11ene9156979 0.1 10181416
21:00+7ene61078100 0.1 1018830